Weather in Turrialba

Costa Rica     9°54′11″N   83°41′08″W
temp.,
°C
wind,
m/s
gust,
m/s
humid.,
%
clouds,
%
prec.,
mm/h
press.,
hPa
HPBL,
m
17 may, mon
mon1700:00+16e119198 0.2 1016142
03:00+15ssw119528 0.0 101541
06:00+15ssw1291100 0.0 101747
09:00+22ene226090 0.0 1017874
12:00+24ene3254100 0.0 10151335
15:00+22ne3265100 0.0 10131096
18:00+17e1210084 0.1 101592
21:00+17ssw119592 0.0 1017106
18 may, tue
tue1800:00+16sw1196100 0.1 101621
03:00+15s119398 0.0 101530
06:00+15ssw229096 0.0 101645
09:00+22ene2251100 0.0 1016832
12:00+24ene3250100 0.0 10141313
15:00+23ne325885 0.0 10121212
18:00+17e0196100 0.0 101514
21:00+16sw229442 0.0 101639
19 may, wed
wed1900:00+16wsw219384 0.0 101525
03:00+16wsw219349 0.0 101424
06:00+17wsw118923 0.0 101525
09:00+23ene226110 0.0 1015968
12:00+24ne325789 0.0 10131391
15:00+22ne227381 0.1 1011832
18:00+18ne129482 0.4 1013200
21:00+18sse019320 0.0 101424
20 may, thu
thu2000:00+16sw11951 0.0 101419
03:00+16sw11920 0.0 101317
06:00+16ssw11880 0.0 101431
09:00+23ene22601 0.0 1014938
12:00+25ne325631 0.0 10121397
15:00+22ne337292 0.3 1011934
18:00+18ne129782 1.1 1013118
21:00+17ssw119829 0.1 101424
21 may, fri
fri2100:00+17sw119617 0.1 101319
03:00+16sw11957 0.0 101314
06:00+17ssw11928 0.0 101432
09:00+23ene226622 0.0 1014967
12:00+22ne338172 1.5 1013836
15:00+20ne2288100 4.5 1012546
18:00+18ne1197100 5.9 101456
21:00+18ene119491 0.3 101536